Year,Month,Day,Hour,Minute,Value (Times are PST for temperature in C)
2018,07,21,00,00,14.10
2018,07,21,00,01,14.10
2018,07,21,00,02,14.10
2018,07,21,00,03,14.10
2018,07,21,00,04,14.00
2018,07,21,00,05,14.00
2018,07,21,00,06,14.00
2018,07,21,00,07,13.90
2018,07,21,00,08,13.90
2018,07,21,00,09,13.90
2018,07,21,00,10,13.90
2018,07,21,00,11,13.80
2018,07,21,00,12,13.80
2018,07,21,00,13,13.80
2018,07,21,00,14,13.80
2018,07,21,00,15,13.70
2018,07,21,00,16,13.70
2018,07,21,00,17,13.70
2018,07,21,00,18,13.70
2018,07,21,00,19,13.60
2018,07,21,00,20,13.60
2018,07,21,00,21,13.60
2018,07,21,00,22,13.60
2018,07,21,00,23,13.50
2018,07,21,00,24,13.50
2018,07,21,00,25,13.50
2018,07,21,00,26,13.50
2018,07,21,00,27,13.40
2018,07,21,00,28,13.40
2018,07,21,00,29,13.40
2018,07,21,00,30,13.40
2018,07,21,00,31,13.40
2018,07,21,00,32,13.40
2018,07,21,00,33,13.30
2018,07,21,00,34,13.30
2018,07,21,00,35,13.30
2018,07,21,00,36,13.30
2018,07,21,00,37,13.30
2018,07,21,00,38,13.30
2018,07,21,00,39,13.30
2018,07,21,00,40,13.30
2018,07,21,00,41,13.30
2018,07,21,00,42,13.30
2018,07,21,00,43,13.30
2018,07,21,00,44,13.20
2018,07,21,00,45,13.20
2018,07,21,00,46,13.20
2018,07,21,00,47,13.20
2018,07,21,00,48,13.20
2018,07,21,00,49,13.20
2018,07,21,00,50,13.20
2018,07,21,00,51,13.20
2018,07,21,00,52,13.20
2018,07,21,00,53,13.10
2018,07,21,00,54,13.10
2018,07,21,00,55,13.10
2018,07,21,00,56,13.10
2018,07,21,00,57,13.10
2018,07,21,00,58,13.10
2018,07,21,00,59,13.10
2018,07,21,01,00,13.00
2018,07,21,01,01,13.00
2018,07,21,01,02,13.00
2018,07,21,01,03,12.90
2018,07,21,01,04,12.90
2018,07,21,01,05,12.90
2018,07,21,01,06,12.90
2018,07,21,01,07,12.90
2018,07,21,01,08,12.90
2018,07,21,01,09,12.90
2018,07,21,01,10,12.90
2018,07,21,01,11,12.80
2018,07,21,01,12,12.80
2018,07,21,01,13,12.80
2018,07,21,01,14,12.80
2018,07,21,01,15,12.80
2018,07,21,01,16,12.80
2018,07,21,01,17,12.70
2018,07,21,01,18,12.70
2018,07,21,01,19,12.70
2018,07,21,01,20,12.70
2018,07,21,01,21,12.70
2018,07,21,01,22,12.70
2018,07,21,01,23,12.60
2018,07,21,01,24,12.60
2018,07,21,01,25,12.60
2018,07,21,01,26,12.60
2018,07,21,01,27,12.60
2018,07,21,01,28,12.60
2018,07,21,01,29,12.60
2018,07,21,01,30,12.60
2018,07,21,01,31,12.60
2018,07,21,01,32,12.60
2018,07,21,01,33,12.60
2018,07,21,01,34,12.50
2018,07,21,01,35,12.50
2018,07,21,01,36,12.50
2018,07,21,01,37,12.50
2018,07,21,01,38,12.40
2018,07,21,01,39,12.40
2018,07,21,01,40,12.40
2018,07,21,01,41,12.40
2018,07,21,01,42,12.40
2018,07,21,01,43,12.40
2018,07,21,01,44,12.30
2018,07,21,01,45,12.30
2018,07,21,01,46,12.30
2018,07,21,01,47,12.30
2018,07,21,01,48,12.30
2018,07,21,01,49,12.30
2018,07,21,01,50,12.20
2018,07,21,01,51,12.20
2018,07,21,01,52,12.20
2018,07,21,01,53,12.20
2018,07,21,01,54,12.20
2018,07,21,01,55,12.20
2018,07,21,01,56,12.20
2018,07,21,01,57,12.20
2018,07,21,01,58,12.20
2018,07,21,01,59,12.20
2018,07,21,02,00,12.20
2018,07,21,02,01,12.20
2018,07,21,02,02,12.20
2018,07,21,02,03,12.20
2018,07,21,02,04,12.20
2018,07,21,02,05,12.20
2018,07,21,02,06,12.20
2018,07,21,02,07,12.20
2018,07,21,02,08,12.20
2018,07,21,02,09,12.20
2018,07,21,02,10,12.20
2018,07,21,02,11,12.20
2018,07,21,02,12,12.10
2018,07,21,02,13,12.10
2018,07,21,02,14,12.10
2018,07,21,02,15,12.10
2018,07,21,02,16,12.10
2018,07,21,02,17,12.10
2018,07,21,02,18,12.00
2018,07,21,02,19,12.00
2018,07,21,02,20,11.90
2018,07,21,02,21,11.90
2018,07,21,02,22,11.90
2018,07,21,02,23,11.80
2018,07,21,02,24,11.80
2018,07,21,02,25,11.80
2018,07,21,02,26,11.70
2018,07,21,02,27,11.70
2018,07,21,02,28,11.70
2018,07,21,02,29,11.60
2018,07,21,02,30,11.60
2018,07,21,02,31,11.60
2018,07,21,02,32,11.50
2018,07,21,02,33,11.50
2018,07,21,02,34,11.50
2018,07,21,02,35,11.40
2018,07,21,02,36,11.40
2018,07,21,02,37,11.40
2018,07,21,02,38,11.40
2018,07,21,02,39,11.40
2018,07,21,02,40,11.40
2018,07,21,02,41,11.40
2018,07,21,02,42,11.40
2018,07,21,02,43,11.40
2018,07,21,02,44,11.30
2018,07,21,02,45,11.30
2018,07,21,02,46,11.30
2018,07,21,02,47,11.30
2018,07,21,02,48,11.30
2018,07,21,02,49,11.30
2018,07,21,02,50,11.30
2018,07,21,02,51,11.30
2018,07,21,02,52,11.40
2018,07,21,02,53,11.40
2018,07,21,02,54,11.40
2018,07,21,02,55,11.40
2018,07,21,02,56,11.40
2018,07,21,02,57,11.40
2018,07,21,02,58,11.40
2018,07,21,02,59,11.40
2018,07,21,03,00,11.40
2018,07,21,03,01,11.40
2018,07,21,03,02,11.40
2018,07,21,03,03,11.40
2018,07,21,03,04,11.40
2018,07,21,03,05,11.40
2018,07,21,03,06,11.40
2018,07,21,03,07,11.30
2018,07,21,03,08,11.30
2018,07,21,03,09,11.30
2018,07,21,03,10,11.30
2018,07,21,03,11,11.30
2018,07,21,03,12,11.30
2018,07,21,03,13,11.30
2018,07,21,03,14,11.30
2018,07,21,03,15,11.30
2018,07,21,03,16,11.30
2018,07,21,03,17,11.30
2018,07,21,03,18,11.30
2018,07,21,03,19,11.30
2018,07,21,03,20,11.30
2018,07,21,03,21,11.30
2018,07,21,03,22,11.30
2018,07,21,03,23,11.30
2018,07,21,03,24,11.30
2018,07,21,03,25,11.30
2018,07,21,03,26,11.30
2018,07,21,03,27,11.30
2018,07,21,03,28,11.30
2018,07,21,03,29,11.30
2018,07,21,03,30,11.20
2018,07,21,03,31,11.20
2018,07,21,03,32,11.20
2018,07,21,03,33,11.20
2018,07,21,03,34,11.20
2018,07,21,03,35,11.20
2018,07,21,03,36,11.20
2018,07,21,03,37,11.20
2018,07,21,03,38,11.10
2018,07,21,03,39,11.10
2018,07,21,03,40,11.10
2018,07,21,03,41,11.00
2018,07,21,03,42,11.00
2018,07,21,03,43,10.90
2018,07,21,03,44,10.90
2018,07,21,03,45,10.90
2018,07,21,03,46,10.90
2018,07,21,03,47,10.80
2018,07,21,03,48,10.80
2018,07,21,03,49,10.80
2018,07,21,03,50,10.80
2018,07,21,03,51,10.80
2018,07,21,03,52,10.80
2018,07,21,03,53,10.70
2018,07,21,03,54,10.70
2018,07,21,03,55,10.70
2018,07,21,03,56,10.70
2018,07,21,03,57,10.70
2018,07,21,03,58,10.70
2018,07,21,03,59,10.70
2018,07,21,04,00,10.70
2018,07,21,04,01,10.70
2018,07,21,04,02,10.70
2018,07,21,04,03,10.70
2018,07,21,04,04,10.70
2018,07,21,04,05,10.70
2018,07,21,04,06,10.60
2018,07,21,04,07,10.60
2018,07,21,04,08,10.60
2018,07,21,04,09,10.60
2018,07,21,04,10,10.60
2018,07,21,04,11,10.60
2018,07,21,04,12,10.60
2018,07,21,04,13,10.60
2018,07,21,04,14,10.60
2018,07,21,04,15,10.50
2018,07,21,04,16,10.50
2018,07,21,04,17,10.50
2018,07,21,04,18,10.50
2018,07,21,04,19,10.50
2018,07,21,04,20,10.40
2018,07,21,04,21,10.40
2018,07,21,04,22,10.40
2018,07,21,04,23,10.40
2018,07,21,04,24,10.40
2018,07,21,04,25,10.30
2018,07,21,04,26,10.30
2018,07,21,04,27,10.30
2018,07,21,04,28,10.30
2018,07,21,04,29,10.30
2018,07,21,04,30,10.30
2018,07,21,04,31,10.30
2018,07,21,04,32,10.30
2018,07,21,04,33,10.30
2018,07,21,04,34,10.30
2018,07,21,04,35,10.30
2018,07,21,04,36,10.30
2018,07,21,04,37,10.30
2018,07,21,04,38,10.30
2018,07,21,04,39,10.30
2018,07,21,04,40,10.30
2018,07,21,04,41,10.30
2018,07,21,04,42,10.30
2018,07,21,04,43,10.30
2018,07,21,04,44,10.30
2018,07,21,04,45,10.30
2018,07,21,04,46,10.30
2018,07,21,04,47,10.30
2018,07,21,04,48,10.30
2018,07,21,04,49,10.30
2018,07,21,04,50,10.30
2018,07,21,04,51,10.20
2018,07,21,04,52,10.20
2018,07,21,04,53,10.20
2018,07,21,04,54,10.20
2018,07,21,04,55,10.20
2018,07,21,04,56,10.20
2018,07,21,04,57,10.20
2018,07,21,04,58,10.20
2018,07,21,04,59,10.20
2018,07,21,05,00,10.20
2018,07,21,05,01,10.20
2018,07,21,05,02,10.20
2018,07,21,05,03,10.20
2018,07,21,05,04,10.20
2018,07,21,05,05,10.20
2018,07,21,05,06,10.20
2018,07,21,05,07,10.20
2018,07,21,05,08,10.20
2018,07,21,05,09,10.20
2018,07,21,05,10,10.20
2018,07,21,05,11,10.20
2018,07,21,05,12,10.20
2018,07,21,05,13,10.20
2018,07,21,05,14,10.20
2018,07,21,05,15,10.10
2018,07,21,05,16,10.10
2018,07,21,05,17,10.10
2018,07,21,05,18,10.10
2018,07,21,05,19,10.10
2018,07,21,05,20,10.10
2018,07,21,05,21,10.10
2018,07,21,05,22,10.10
2018,07,21,05,23,10.10
2018,07,21,05,24,10.10
2018,07,21,05,25,10.10
2018,07,21,05,26,10.00
2018,07,21,05,27,10.00
2018,07,21,05,28,10.00
2018,07,21,05,29,10.00
2018,07,21,05,30,10.00
2018,07,21,05,31,10.00
2018,07,21,05,32,10.10
2018,07,21,05,33,10.10
2018,07,21,05,34,10.10
2018,07,21,05,35,10.10
2018,07,21,05,36,10.10
2018,07,21,05,37,10.20
2018,07,21,05,38,10.20
2018,07,21,05,39,10.20
2018,07,21,05,40,10.20
2018,07,21,05,41,10.20
2018,07,21,05,42,10.20
2018,07,21,05,43,10.20
2018,07,21,05,44,10.20
2018,07,21,05,45,10.20
2018,07,21,05,46,10.20
2018,07,21,05,47,10.20
2018,07,21,05,48,10.20
2018,07,21,05,49,10.10
2018,07,21,05,50,10.10
2018,07,21,05,51,10.10
2018,07,21,05,52,10.10
2018,07,21,05,53,10.10
2018,07,21,05,54,10.10
2018,07,21,05,55,10.10
2018,07,21,05,56,10.10
2018,07,21,05,57,10.10
2018,07,21,05,58,10.20
2018,07,21,05,59,10.20
2018,07,21,06,00,10.20
2018,07,21,06,01,10.20
2018,07,21,06,02,10.20
2018,07,21,06,03,10.20
2018,07,21,06,04,10.20
2018,07,21,06,05,10.20
2018,07,21,06,06,10.20
2018,07,21,06,07,10.20
2018,07,21,06,08,10.20
2018,07,21,06,09,10.20
2018,07,21,06,10,10.20
2018,07,21,06,11,10.20
2018,07,21,06,12,10.20
2018,07,21,06,13,10.20
2018,07,21,06,14,10.30
2018,07,21,06,15,10.30
2018,07,21,06,16,10.30
2018,07,21,06,17,10.30
2018,07,21,06,18,10.30
2018,07,21,06,19,10.30
2018,07,21,06,20,10.30
2018,07,21,06,21,10.30
2018,07,21,06,22,10.30
2018,07,21,06,23,10.40
2018,07,21,06,24,10.40
2018,07,21,06,25,10.40
2018,07,21,06,26,10.40
2018,07,21,06,27,10.50
2018,07,21,06,28,10.50
2018,07,21,06,29,10.50
2018,07,21,06,30,10.60
2018,07,21,06,31,10.60
2018,07,21,06,32,10.60
2018,07,21,06,33,10.60
2018,07,21,06,34,10.60
2018,07,21,06,35,10.60
2018,07,21,06,36,10.60
2018,07,21,06,37,10.60
2018,07,21,06,38,10.60
2018,07,21,06,39,10.60
2018,07,21,06,40,10.60
2018,07,21,06,41,10.70
2018,07,21,06,42,10.70
2018,07,21,06,43,10.70
2018,07,21,06,44,10.70
2018,07,21,06,45,10.70
2018,07,21,06,46,10.70
2018,07,21,06,47,10.70
2018,07,21,06,48,10.80
2018,07,21,06,49,10.80
2018,07,21,06,50,10.80
2018,07,21,06,51,10.80
2018,07,21,06,52,10.80
2018,07,21,06,53,10.90
2018,07,21,06,54,10.90
2018,07,21,06,55,11.00
2018,07,21,06,56,11.10
2018,07,21,06,57,11.20
2018,07,21,06,58,11.40
2018,07,21,06,59,11.50
2018,07,21,07,00,11.70
2018,07,21,07,01,11.80
2018,07,21,07,02,11.90
2018,07,21,07,03,12.00
2018,07,21,07,04,12.20
2018,07,21,07,05,12.30
2018,07,21,07,06,12.40
2018,07,21,07,07,12.60
2018,07,21,07,08,12.70
2018,07,21,07,09,12.80
2018,07,21,07,10,12.90
2018,07,21,07,11,13.00
2018,07,21,07,12,13.10
2018,07,21,07,13,13.20
2018,07,21,07,14,13.30
2018,07,21,07,15,13.30
2018,07,21,07,16,13.50
2018,07,21,07,17,13.60
2018,07,21,07,18,13.80
2018,07,21,07,19,13.80
2018,07,21,07,20,13.90
2018,07,21,07,21,14.00
2018,07,21,07,22,14.00
2018,07,21,07,23,14.00
2018,07,21,07,24,14.00
2018,07,21,07,25,14.10
2018,07,21,07,26,14.10
2018,07,21,07,27,14.10
2018,07,21,07,28,14.20
2018,07,21,07,29,14.20
2018,07,21,07,30,14.20
2018,07,21,07,31,14.30
2018,07,21,07,32,14.30
2018,07,21,07,33,14.40
2018,07,21,07,34,14.40
2018,07,21,07,35,14.50
2018,07,21,07,36,14.60
2018,07,21,07,37,14.80
2018,07,21,07,38,14.90
2018,07,21,07,39,15.00
2018,07,21,07,40,15.10
2018,07,21,07,41,15.20
2018,07,21,07,42,15.30
2018,07,21,07,43,15.50
2018,07,21,07,44,15.70
2018,07,21,07,45,15.80
2018,07,21,07,46,16.00
2018,07,21,07,47,16.10
2018,07,21,07,48,16.30
2018,07,21,07,49,16.30
2018,07,21,07,50,16.40
2018,07,21,07,51,16.50
2018,07,21,07,52,16.60
2018,07,21,07,53,16.70
2018,07,21,07,54,16.80
2018,07,21,07,55,16.90
2018,07,21,07,56,17.00
2018,07,21,07,57,17.00
2018,07,21,07,58,17.10
2018,07,21,07,59,17.10
2018,07,21,08,00,17.20
2018,07,21,08,01,17.20
2018,07,21,08,02,17.20
2018,07,21,08,03,17.20
2018,07,21,08,04,17.10
2018,07,21,08,05,17.10
2018,07,21,08,06,17.10
2018,07,21,08,07,17.20
2018,07,21,08,08,17.20
2018,07,21,08,09,17.20
2018,07,21,08,10,17.30
2018,07,21,08,11,17.30
2018,07,21,08,12,17.40
2018,07,21,08,13,17.40
2018,07,21,08,14,17.50
2018,07,21,08,15,17.50
2018,07,21,08,16,17.50
2018,07,21,08,17,17.60
2018,07,21,08,18,17.60
2018,07,21,08,19,17.70
2018,07,21,08,20,17.80
2018,07,21,08,21,17.90
2018,07,21,08,22,17.90
2018,07,21,08,23,17.90
2018,07,21,08,24,17.90
2018,07,21,08,25,17.90
2018,07,21,08,26,18.00
2018,07,21,08,27,18.10
2018,07,21,08,28,18.10
2018,07,21,08,29,18.10
2018,07,21,08,30,18.10
2018,07,21,08,31,18.20
2018,07,21,08,32,18.20
2018,07,21,08,33,18.30
2018,07,21,08,34,18.30
2018,07,21,08,35,18.30
2018,07,21,08,36,18.30
2018,07,21,08,37,18.40
2018,07,21,08,38,18.40
2018,07,21,08,39,18.50
2018,07,21,08,40,18.50
2018,07,21,08,41,18.60
2018,07,21,08,42,18.60
2018,07,21,08,43,18.60
2018,07,21,08,44,18.60
2018,07,21,08,45,18.60
2018,07,21,08,46,18.60
2018,07,21,08,47,18.70
2018,07,21,08,48,18.60
2018,07,21,08,49,18.60
2018,07,21,08,50,18.50
2018,07,21,08,51,18.60
2018,07,21,08,52,18.60
2018,07,21,08,53,18.60
2018,07,21,08,54,18.70
2018,07,21,08,55,18.80
2018,07,21,08,56,18.80
2018,07,21,08,57,18.80
2018,07,21,08,58,18.80
2018,07,21,08,59,18.90
2018,07,21,09,00,18.90
2018,07,21,09,01,18.90
2018,07,21,09,02,18.80
2018,07,21,09,03,18.90
2018,07,21,09,04,18.90
2018,07,21,09,05,18.90
2018,07,21,09,06,18.90
2018,07,21,09,07,18.90
2018,07,21,09,08,19.00
2018,07,21,09,09,19.00
2018,07,21,09,10,19.10
2018,07,21,09,11,19.20
2018,07,21,09,12,19.20
2018,07,21,09,13,19.20
2018,07,21,09,14,19.20
2018,07,21,09,15,19.20
2018,07,21,09,16,19.20
2018,07,21,09,17,19.20
2018,07,21,09,18,19.20
2018,07,21,09,19,19.20
2018,07,21,09,20,19.20
2018,07,21,09,21,19.20
2018,07,21,09,22,19.20
2018,07,21,09,23,19.10
2018,07,21,09,24,19.10
2018,07,21,09,25,19.10
2018,07,21,09,26,19.10
2018,07,21,09,27,19.20
2018,07,21,09,28,19.20
2018,07,21,09,29,19.20
2018,07,21,09,30,19.20
2018,07,21,09,31,19.20
2018,07,21,09,32,19.20
2018,07,21,09,33,19.10
2018,07,21,09,34,19.10
2018,07,21,09,35,19.10
2018,07,21,09,36,19.10
2018,07,21,09,37,19.10
2018,07,21,09,38,19.20
2018,07,21,09,39,19.30
2018,07,21,09,40,19.30
2018,07,21,09,41,19.20
2018,07,21,09,42,19.10
2018,07,21,09,43,19.10
2018,07,21,09,44,19.10
2018,07,21,09,45,19.10
2018,07,21,09,46,19.00
2018,07,21,09,47,19.00
2018,07,21,09,48,18.90
2018,07,21,09,49,18.90
2018,07,21,09,50,18.90
2018,07,21,09,51,18.90
2018,07,21,09,52,18.90
2018,07,21,09,53,19.00
2018,07,21,09,54,19.10
2018,07,21,09,55,19.10
2018,07,21,09,56,19.10
2018,07,21,09,57,19.10
2018,07,21,09,58,19.00
2018,07,21,09,59,18.90
2018,07,21,10,00,18.90
2018,07,21,10,01,18.90
2018,07,21,10,02,18.90
2018,07,21,10,03,19.00
2018,07,21,10,04,19.00
2018,07,21,10,05,19.00
2018,07,21,10,06,19.00
2018,07,21,10,07,19.00
2018,07,21,10,08,19.00
2018,07,21,10,09,19.10
2018,07,21,10,10,19.10
2018,07,21,10,11,19.10
2018,07,21,10,12,19.20
2018,07,21,10,13,19.30
2018,07,21,10,14,19.30
2018,07,21,10,15,19.30
2018,07,21,10,16,19.30
2018,07,21,10,17,19.30
2018,07,21,10,18,19.30
2018,07,21,10,19,19.20
2018,07,21,10,20,19.20
2018,07,21,10,21,19.10
2018,07,21,10,22,19.20
2018,07,21,10,23,19.20
2018,07,21,10,24,19.30
2018,07,21,10,25,19.30
2018,07,21,10,26,19.30
2018,07,21,10,27,19.30
2018,07,21,10,28,19.20
2018,07,21,10,29,19.30
2018,07,21,10,30,19.30
2018,07,21,10,31,19.40
2018,07,21,10,32,19.40
2018,07,21,10,33,19.30
2018,07,21,10,34,19.30
2018,07,21,10,35,19.20
2018,07,21,10,36,19.10
2018,07,21,10,37,19.00
2018,07,21,10,38,18.90
2018,07,21,10,39,19.00
2018,07,21,10,40,19.00
2018,07,21,10,41,19.00
2018,07,21,10,42,19.00
2018,07,21,10,43,19.10
2018,07,21,10,44,19.10
2018,07,21,10,45,19.00
2018,07,21,10,46,19.10
2018,07,21,10,47,19.10
2018,07,21,10,48,19.10
2018,07,21,10,49,19.20
2018,07,21,10,50,19.30
2018,07,21,10,51,19.30
2018,07,21,10,52,19.40
2018,07,21,10,53,19.50
2018,07,21,10,54,19.60
2018,07,21,10,55,19.60
2018,07,21,10,56,19.70
2018,07,21,10,57,19.70
2018,07,21,10,58,19.70
2018,07,21,10,59,19.60
2018,07,21,11,00,19.50
2018,07,21,11,01,19.60
2018,07,21,11,02,19.60
2018,07,21,11,03,19.50
2018,07,21,11,04,19.40
2018,07,21,11,05,19.40
2018,07,21,11,06,19.40
2018,07,21,11,07,19.40
2018,07,21,11,08,19.50
2018,07,21,11,09,19.60
2018,07,21,11,10,19.60
2018,07,21,11,11,19.70
2018,07,21,11,12,19.70
2018,07,21,11,13,19.70
2018,07,21,11,14,19.60
2018,07,21,11,15,19.60
2018,07,21,11,16,19.50
2018,07,21,11,17,19.60
2018,07,21,11,18,19.70
2018,07,21,11,19,19.70
2018,07,21,11,20,19.80
2018,07,21,11,21,19.90
2018,07,21,11,22,20.00
2018,07,21,11,23,20.00
2018,07,21,11,24,20.00
2018,07,21,11,25,20.10
2018,07,21,11,26,20.20
2018,07,21,11,27,20.30
2018,07,21,11,28,20.30
2018,07,21,11,29,20.20
2018,07,21,11,30,20.00
2018,07,21,11,31,19.90
2018,07,21,11,32,20.00
2018,07,21,11,33,19.90
2018,07,21,11,34,19.90
2018,07,21,11,35,19.80
2018,07,21,11,36,19.80
2018,07,21,11,37,19.80
2018,07,21,11,38,19.90
2018,07,21,11,39,19.90
2018,07,21,11,40,20.00
2018,07,21,11,41,20.00
2018,07,21,11,42,20.20
2018,07,21,11,43,20.30
2018,07,21,11,44,20.30
2018,07,21,11,45,20.30
2018,07,21,11,46,20.30
2018,07,21,11,47,20.20
2018,07,21,11,48,20.20
2018,07,21,11,49,20.20
2018,07,21,11,50,20.20
2018,07,21,11,51,20.30
2018,07,21,11,52,20.30
2018,07,21,11,53,20.40
2018,07,21,11,54,20.50
2018,07,21,11,55,20.60
2018,07,21,11,56,20.60
2018,07,21,11,57,20.50
2018,07,21,11,58,20.40
2018,07,21,11,59,20.30
2018,07,21,12,00,20.30
2018,07,21,12,01,20.30
2018,07,21,12,02,20.40
2018,07,21,12,03,20.40
2018,07,21,12,04,20.40
2018,07,21,12,05,20.40
2018,07,21,12,06,20.40
2018,07,21,12,07,20.40
2018,07,21,12,08,20.40
2018,07,21,12,09,20.50
2018,07,21,12,10,20.60
2018,07,21,12,11,20.60
2018,07,21,12,12,20.60
2018,07,21,12,13,20.60
2018,07,21,12,14,20.60
2018,07,21,12,15,20.60
2018,07,21,12,16,20.60
2018,07,21,12,17,20.60
2018,07,21,12,18,20.60
2018,07,21,12,19,20.60
2018,07,21,12,20,20.70
2018,07,21,12,21,20.70
2018,07,21,12,22,20.70
2018,07,21,12,23,20.70
2018,07,21,12,24,20.80
2018,07,21,12,25,21.00
2018,07,21,12,26,21.00
2018,07,21,12,27,20.90
2018,07,21,12,28,20.80
2018,07,21,12,29,20.90
2018,07,21,12,30,20.80
2018,07,21,12,31,20.80
2018,07,21,12,32,20.80
2018,07,21,12,33,20.80
2018,07,21,12,34,20.80
2018,07,21,12,35,20.80
2018,07,21,12,36,20.90
2018,07,21,12,37,20.90
2018,07,21,12,38,20.90
2018,07,21,12,39,20.90
2018,07,21,12,40,21.00
2018,07,21,12,41,21.10
2018,07,21,12,42,21.20
2018,07,21,12,43,21.20
2018,07,21,12,44,21.30
2018,07,21,12,45,21.30
2018,07,21,12,46,21.20
2018,07,21,12,47,21.20
2018,07,21,12,48,21.10
2018,07,21,12,49,21.10
2018,07,21,12,50,21.20
2018,07,21,12,51,21.20
2018,07,21,12,52,21.20
2018,07,21,12,53,21.30
2018,07,21,12,54,21.30
2018,07,21,12,55,21.30
2018,07,21,12,56,21.20
2018,07,21,12,57,21.20
2018,07,21,12,58,21.00
2018,07,21,12,59,20.90
2018,07,21,13,00,20.90
2018,07,21,13,01,20.90
2018,07,21,13,02,21.00
2018,07,21,13,03,21.10
2018,07,21,13,04,21.20
2018,07,21,13,05,21.30
2018,07,21,13,06,21.40
2018,07,21,13,07,21.60
2018,07,21,13,08,21.70
2018,07,21,13,09,21.80
2018,07,21,13,10,21.80
2018,07,21,13,11,21.80
2018,07,21,13,12,21.90
2018,07,21,13,13,21.90
2018,07,21,13,14,21.90
2018,07,21,13,15,21.90
2018,07,21,13,16,21.80
2018,07,21,13,17,21.80
2018,07,21,13,18,21.80
2018,07,21,13,19,21.80
2018,07,21,13,20,21.70
2018,07,21,13,21,21.70
2018,07,21,13,22,21.70
2018,07,21,13,23,21.70
2018,07,21,13,24,21.60
2018,07,21,13,25,21.60
2018,07,21,13,26,21.60
2018,07,21,13,27,21.60
2018,07,21,13,28,21.60
2018,07,21,13,29,21.70
2018,07,21,13,30,21.70
2018,07,21,13,31,21.60
2018,07,21,13,32,21.70
2018,07,21,13,33,21.70
2018,07,21,13,34,21.70
2018,07,21,13,35,21.70
2018,07,21,13,36,21.80
2018,07,21,13,37,21.80
2018,07,21,13,38,21.80
2018,07,21,13,39,21.80
2018,07,21,13,40,21.90
2018,07,21,13,41,21.90
2018,07,21,13,42,22.00
2018,07,21,13,43,22.00
2018,07,21,13,44,22.00
2018,07,21,13,45,21.90
2018,07,21,13,46,21.80
2018,07,21,13,47,21.70
2018,07,21,13,48,21.70
2018,07,21,13,49,21.60
2018,07,21,13,50,21.60
2018,07,21,13,51,21.60
2018,07,21,13,52,21.70
2018,07,21,13,53,21.70
2018,07,21,13,54,21.60
2018,07,21,13,55,21.60
2018,07,21,13,56,21.60
2018,07,21,13,57,21.60
2018,07,21,13,58,21.60
2018,07,21,13,59,21.70
2018,07,21,14,00,21.90
2018,07,21,14,01,21.90
2018,07,21,14,02,21.90
2018,07,21,14,03,21.80
2018,07,21,14,04,21.80
2018,07,21,14,05,21.90
2018,07,21,14,06,21.90
2018,07,21,14,07,21.90
2018,07,21,14,08,21.90
2018,07,21,14,09,21.90
2018,07,21,14,10,21.90
2018,07,21,14,11,22.00
2018,07,21,14,12,22.10
2018,07,21,14,13,22.20
2018,07,21,14,14,22.20
2018,07,21,14,15,22.10
2018,07,21,14,16,21.90
2018,07,21,14,17,21.80
2018,07,21,14,18,21.80
2018,07,21,14,19,21.80
2018,07,21,14,20,21.80
2018,07,21,14,21,21.80
2018,07,21,14,22,21.80
2018,07,21,14,23,21.80
2018,07,21,14,24,21.70
2018,07,21,14,25,21.70
2018,07,21,14,26,21.70
2018,07,21,14,27,21.80
2018,07,21,14,28,21.80
2018,07,21,14,29,21.90
2018,07,21,14,30,21.90
2018,07,21,14,31,21.90
2018,07,21,14,32,21.90
2018,07,21,14,33,21.80
2018,07,21,14,34,21.90
2018,07,21,14,35,21.90
2018,07,21,14,36,22.00
2018,07,21,14,37,22.10
2018,07,21,14,38,22.10
2018,07,21,14,39,22.20
2018,07,21,14,40,22.20
2018,07,21,14,41,22.30
2018,07,21,14,42,22.30
2018,07,21,14,43,22.30
2018,07,21,14,44,22.30
2018,07,21,14,45,22.30
2018,07,21,14,46,22.20
2018,07,21,14,47,22.30
2018,07,21,14,48,22.20
2018,07,21,14,49,22.20
2018,07,21,14,50,22.10
2018,07,21,14,51,22.20
2018,07,21,14,52,22.20
2018,07,21,14,53,22.30
2018,07,21,14,54,22.30
2018,07,21,14,55,22.30
2018,07,21,14,56,22.30
2018,07,21,14,57,22.30
2018,07,21,14,58,22.40
2018,07,21,14,59,22.50
2018,07,21,15,00,22.60
2018,07,21,15,01,22.60
2018,07,21,15,02,22.50
2018,07,21,15,03,22.50
2018,07,21,15,04,22.50
2018,07,21,15,05,22.60
2018,07,21,15,06,22.60
2018,07,21,15,07,22.70
2018,07,21,15,08,22.60
2018,07,21,15,09,22.60
2018,07,21,15,10,22.60
2018,07,21,15,11,22.60
2018,07,21,15,12,22.50
2018,07,21,15,13,22.50
2018,07,21,15,14,22.40
2018,07,21,15,15,22.50
2018,07,21,15,16,22.50
2018,07,21,15,17,22.60
2018,07,21,15,18,22.70
2018,07,21,15,19,22.80
2018,07,21,15,20,22.90
2018,07,21,15,21,22.90
2018,07,21,15,22,22.80
2018,07,21,15,23,22.70
2018,07,21,15,24,22.70
2018,07,21,15,25,22.90
2018,07,21,15,26,23.00
2018,07,21,15,27,23.10
2018,07,21,15,28,23.00
2018,07,21,15,29,22.90
2018,07,21,15,30,22.80
2018,07,21,15,31,22.70
2018,07,21,15,32,22.70
2018,07,21,15,33,22.70
2018,07,21,15,34,22.60
2018,07,21,15,35,22.60
2018,07,21,15,36,22.60
2018,07,21,15,37,22.50
2018,07,21,15,38,22.40
2018,07,21,15,39,22.40
2018,07,21,15,40,22.40
2018,07,21,15,41,22.40
2018,07,21,15,42,22.50
2018,07,21,15,43,22.50
2018,07,21,15,44,22.50
2018,07,21,15,45,22.60
2018,07,21,15,46,22.70
2018,07,21,15,47,22.70
2018,07,21,15,48,22.80
2018,07,21,15,49,22.80
2018,07,21,15,50,22.80
2018,07,21,15,51,22.70
2018,07,21,15,52,22.60
2018,07,21,15,53,22.50
2018,07,21,15,54,22.50
2018,07,21,15,55,22.40
2018,07,21,15,56,22.40
2018,07,21,15,57,22.40
2018,07,21,15,58,22.40
2018,07,21,15,59,22.50
2018,07,21,16,00,22.60
2018,07,21,16,01,22.70
2018,07,21,16,02,22.60
2018,07,21,16,03,22.60
2018,07,21,16,04,22.60
2018,07,21,16,05,22.70
2018,07,21,16,06,22.60
2018,07,21,16,07,22.60
2018,07,21,16,08,22.60
2018,07,21,16,09,22.50
2018,07,21,16,10,22.50
2018,07,21,16,11,22.50
2018,07,21,16,12,22.60
2018,07,21,16,13,22.60
2018,07,21,16,14,22.60
2018,07,21,16,15,22.80
2018,07,21,16,16,22.80
2018,07,21,16,17,22.70
2018,07,21,16,18,22.50
2018,07,21,16,19,22.30
2018,07,21,16,20,22.20
2018,07,21,16,21,22.30
2018,07,21,16,22,22.30
2018,07,21,16,23,22.30
2018,07,21,16,24,22.30
2018,07,21,16,25,22.30
2018,07,21,16,26,22.20
2018,07,21,16,27,22.20
2018,07,21,16,28,22.10
2018,07,21,16,29,22.10
2018,07,21,16,30,22.20
2018,07,21,16,31,22.20
2018,07,21,16,32,22.10
2018,07,21,16,33,22.00
2018,07,21,16,34,21.90
2018,07,21,16,35,21.90
2018,07,21,16,36,22.00
2018,07,21,16,37,22.10
2018,07,21,16,38,22.20
2018,07,21,16,39,22.20
2018,07,21,16,40,22.10
2018,07,21,16,41,22.00
2018,07,21,16,42,22.00
2018,07,21,16,43,22.10
2018,07,21,16,44,22.20
2018,07,21,16,45,22.30
2018,07,21,16,46,22.30
2018,07,21,16,47,22.40
2018,07,21,16,48,22.40
2018,07,21,16,49,22.40
2018,07,21,16,50,22.40
2018,07,21,16,51,22.40
2018,07,21,16,52,22.30
2018,07,21,16,53,22.30
2018,07,21,16,54,22.20
2018,07,21,16,55,22.30
2018,07,21,16,56,22.30
2018,07,21,16,57,22.40
2018,07,21,16,58,22.40
2018,07,21,16,59,22.40
2018,07,21,17,00,22.40
2018,07,21,17,01,22.40
2018,07,21,17,02,22.40
2018,07,21,17,03,22.40
2018,07,21,17,04,22.40
2018,07,21,17,05,22.40
2018,07,21,17,06,22.40
2018,07,21,17,07,22.40
2018,07,21,17,08,22.40
2018,07,21,17,09,22.40
2018,07,21,17,10,22.50
2018,07,21,17,11,22.50
2018,07,21,17,12,22.50
2018,07,21,17,13,22.50
2018,07,21,17,14,22.50
2018,07,21,17,15,22.40
2018,07,21,17,16,22.20
2018,07,21,17,17,22.20
2018,07,21,17,18,22.30
2018,07,21,17,19,22.30